Year,Month,Day,Hour,Minute,Value (Times are PST for temperature in C)
2016,08,20,00,00,17.80
2016,08,20,00,01,17.80
2016,08,20,00,02,17.80
2016,08,20,00,03,17.90
2016,08,20,00,04,18.00
2016,08,20,00,05,18.00
2016,08,20,00,06,18.10
2016,08,20,00,07,18.20
2016,08,20,00,08,18.20
2016,08,20,00,09,18.20
2016,08,20,00,10,18.20
2016,08,20,00,11,18.10
2016,08,20,00,12,18.10
2016,08,20,00,13,18.10
2016,08,20,00,14,18.00
2016,08,20,00,15,17.90
2016,08,20,00,16,17.90
2016,08,20,00,17,17.90
2016,08,20,00,18,17.80
2016,08,20,00,19,17.80
2016,08,20,00,20,17.70
2016,08,20,00,21,17.70
2016,08,20,00,22,17.70
2016,08,20,00,23,17.70
2016,08,20,00,24,17.70
2016,08,20,00,25,17.70
2016,08,20,00,26,17.70
2016,08,20,00,27,17.70
2016,08,20,00,28,17.70
2016,08,20,00,29,17.60
2016,08,20,00,30,17.60
2016,08,20,00,31,17.60
2016,08,20,00,32,17.60
2016,08,20,00,33,17.60
2016,08,20,00,34,17.60
2016,08,20,00,35,17.60
2016,08,20,00,36,17.60
2016,08,20,00,37,17.60
2016,08,20,00,38,17.60
2016,08,20,00,39,17.60
2016,08,20,00,40,17.60
2016,08,20,00,41,17.60
2016,08,20,00,42,17.60
2016,08,20,00,43,17.60
2016,08,20,00,44,17.60
2016,08,20,00,45,17.60
2016,08,20,00,46,17.60
2016,08,20,00,47,17.60
2016,08,20,00,48,17.50
2016,08,20,00,49,17.50
2016,08,20,00,50,17.50
2016,08,20,00,51,17.40
2016,08,20,00,52,17.40
2016,08,20,00,53,17.40
2016,08,20,00,54,17.40
2016,08,20,00,55,17.40
2016,08,20,00,56,17.40
2016,08,20,00,57,17.40
2016,08,20,00,58,17.40
2016,08,20,00,59,17.40
2016,08,20,01,00,17.40
2016,08,20,01,01,17.40
2016,08,20,01,02,17.30
2016,08,20,01,03,17.30
2016,08,20,01,04,17.30
2016,08,20,01,05,17.20
2016,08,20,01,06,17.20
2016,08,20,01,07,17.20
2016,08,20,01,08,17.20
2016,08,20,01,09,17.20
2016,08,20,01,10,17.10
2016,08,20,01,11,17.10
2016,08,20,01,12,17.10
2016,08,20,01,13,17.10
2016,08,20,01,14,17.00
2016,08,20,01,15,17.00
2016,08,20,01,16,17.00
2016,08,20,01,17,16.90
2016,08,20,01,18,16.90
2016,08,20,01,19,16.90
2016,08,20,01,20,16.90
2016,08,20,01,21,16.90
2016,08,20,01,22,16.90
2016,08,20,01,23,16.90
2016,08,20,01,24,16.90
2016,08,20,01,25,16.90
2016,08,20,01,26,16.90
2016,08,20,01,27,16.90
2016,08,20,01,28,16.90
2016,08,20,01,29,16.90
2016,08,20,01,30,16.90
2016,08,20,01,31,16.80
2016,08,20,01,32,16.80
2016,08,20,01,33,16.80
2016,08,20,01,34,16.80
2016,08,20,01,35,16.80
2016,08,20,01,36,16.80
2016,08,20,01,37,16.70
2016,08,20,01,38,16.70
2016,08,20,01,39,16.70
2016,08,20,01,40,16.60
2016,08,20,01,41,16.60
2016,08,20,01,42,16.60
2016,08,20,01,43,16.60
2016,08,20,01,44,16.60
2016,08,20,01,45,16.60
2016,08,20,01,46,16.70
2016,08,20,01,47,16.70
2016,08,20,01,48,16.70
2016,08,20,01,49,16.80
2016,08,20,01,50,16.80
2016,08,20,01,51,16.90
2016,08,20,01,52,16.90
2016,08,20,01,53,16.90
2016,08,20,01,54,16.90
2016,08,20,01,55,16.90
2016,08,20,01,56,16.80
2016,08,20,01,57,16.80
2016,08,20,01,58,16.80
2016,08,20,01,59,16.80
2016,08,20,02,00,16.70
2016,08,20,02,01,16.70
2016,08,20,02,02,16.70
2016,08,20,02,03,16.70
2016,08,20,02,04,16.70
2016,08,20,02,05,16.70
2016,08,20,02,06,16.70
2016,08,20,02,07,16.70
2016,08,20,02,08,16.80
2016,08,20,02,09,16.90
2016,08,20,02,10,16.90
2016,08,20,02,11,17.00
2016,08,20,02,12,17.00
2016,08,20,02,13,17.10
2016,08,20,02,14,17.10
2016,08,20,02,15,17.00
2016,08,20,02,16,17.00
2016,08,20,02,17,16.90
2016,08,20,02,18,16.80
2016,08,20,02,19,16.80
2016,08,20,02,20,16.70
2016,08,20,02,21,16.70
2016,08,20,02,22,16.70
2016,08,20,02,23,16.60
2016,08,20,02,24,16.60
2016,08,20,02,25,16.60
2016,08,20,02,26,16.60
2016,08,20,02,27,16.60
2016,08,20,02,28,16.60
2016,08,20,02,29,16.60
2016,08,20,02,30,16.70
2016,08,20,02,31,16.70
2016,08,20,02,32,16.70
2016,08,20,02,33,16.70
2016,08,20,02,34,16.70
2016,08,20,02,35,16.70
2016,08,20,02,36,16.70
2016,08,20,02,37,16.70
2016,08,20,02,38,16.70
2016,08,20,02,39,16.70
2016,08,20,02,40,16.60
2016,08,20,02,41,16.60
2016,08,20,02,42,16.60
2016,08,20,02,43,16.50
2016,08,20,02,44,16.50
2016,08,20,02,45,16.50
2016,08,20,02,46,16.50
2016,08,20,02,47,16.50
2016,08,20,02,48,16.60
2016,08,20,02,49,16.60
2016,08,20,02,50,16.60
2016,08,20,02,51,16.60
2016,08,20,02,52,16.70
2016,08,20,02,53,16.70
2016,08,20,02,54,16.70
2016,08,20,02,55,16.60
2016,08,20,02,56,16.60
2016,08,20,02,57,16.60
2016,08,20,02,58,16.50
2016,08,20,02,59,16.50
2016,08,20,03,00,16.40
2016,08,20,03,01,16.30
2016,08,20,03,02,16.30
2016,08,20,03,03,16.30
2016,08,20,03,04,16.20
2016,08,20,03,05,16.20
2016,08,20,03,06,16.20
2016,08,20,03,07,16.30
2016,08,20,03,08,16.30
2016,08,20,03,09,16.40
2016,08,20,03,10,16.40
2016,08,20,03,11,16.50
2016,08,20,03,12,16.50
2016,08,20,03,13,16.60
2016,08,20,03,14,16.60
2016,08,20,03,15,16.60
2016,08,20,03,16,16.50
2016,08,20,03,17,16.50
2016,08,20,03,18,16.40
2016,08,20,03,19,16.40
2016,08,20,03,20,16.40
2016,08,20,03,21,16.30
2016,08,20,03,22,16.30
2016,08,20,03,23,16.30
2016,08,20,03,24,16.20
2016,08,20,03,25,16.20
2016,08,20,03,26,16.20
2016,08,20,03,27,16.20
2016,08,20,03,28,16.20
2016,08,20,03,29,16.20
2016,08,20,03,30,16.10
2016,08,20,03,31,16.10
2016,08,20,03,32,16.10
2016,08,20,03,33,16.10
2016,08,20,03,34,16.10
2016,08,20,03,35,16.10
2016,08,20,03,36,16.00
2016,08,20,03,37,16.00
2016,08,20,03,38,15.90
2016,08,20,03,39,15.90
2016,08,20,03,40,15.90
2016,08,20,03,41,15.90
2016,08,20,03,42,15.90
2016,08,20,03,43,15.80
2016,08,20,03,44,15.80
2016,08,20,03,45,15.80
2016,08,20,03,46,15.80
2016,08,20,03,47,15.80
2016,08,20,03,48,15.80
2016,08,20,03,49,15.70
2016,08,20,03,50,15.70
2016,08,20,03,51,15.70
2016,08,20,03,52,15.70
2016,08,20,03,53,15.70
2016,08,20,03,54,15.70
2016,08,20,03,55,15.70
2016,08,20,03,56,15.70
2016,08,20,03,57,15.70
2016,08,20,03,58,15.70
2016,08,20,03,59,15.70
2016,08,20,04,00,15.70
2016,08,20,04,01,15.70
2016,08,20,04,02,15.70
2016,08,20,04,03,15.70
2016,08,20,04,04,15.70
2016,08,20,04,05,15.70
2016,08,20,04,06,15.70
2016,08,20,04,07,15.70
2016,08,20,04,08,15.70
2016,08,20,04,09,15.70
2016,08,20,04,10,15.70
2016,08,20,04,11,15.60
2016,08,20,04,12,15.60
2016,08,20,04,13,15.60
2016,08,20,04,14,15.60
2016,08,20,04,15,15.60
2016,08,20,04,16,15.60
2016,08,20,04,17,15.50
2016,08,20,04,18,15.50
2016,08,20,04,19,15.50
2016,08,20,04,20,15.50
2016,08,20,04,21,15.50
2016,08,20,04,22,15.40
2016,08,20,04,23,15.40
2016,08,20,04,24,15.40
2016,08,20,04,25,15.40
2016,08,20,04,26,15.40
2016,08,20,04,27,15.40
2016,08,20,04,28,15.40
2016,08,20,04,29,15.40
2016,08,20,04,30,15.40
2016,08,20,04,31,15.40
2016,08,20,04,32,15.50
2016,08,20,04,33,15.50
2016,08,20,04,34,15.50
2016,08,20,04,35,15.50
2016,08,20,04,36,15.60
2016,08,20,04,37,15.60
2016,08,20,04,38,15.60
2016,08,20,04,39,15.60
2016,08,20,04,40,15.50
2016,08,20,04,41,15.50
2016,08,20,04,42,15.50
2016,08,20,04,43,15.40
2016,08,20,04,44,15.40
2016,08,20,04,45,15.40
2016,08,20,04,46,15.40
2016,08,20,04,47,15.30
2016,08,20,04,48,15.30
2016,08,20,04,49,15.30
2016,08,20,04,50,15.30
2016,08,20,04,51,15.30
2016,08,20,04,52,15.30
2016,08,20,04,53,15.30
2016,08,20,04,54,15.30
2016,08,20,04,55,15.30
2016,08,20,04,56,15.30
2016,08,20,04,57,15.20
2016,08,20,04,58,15.20
2016,08,20,04,59,15.30
2016,08,20,05,00,15.30
2016,08,20,05,01,15.30
2016,08,20,05,02,15.30
2016,08,20,05,03,15.30
2016,08,20,05,04,15.30
2016,08,20,05,05,15.20
2016,08,20,05,06,15.20
2016,08,20,05,07,15.20
2016,08,20,05,08,15.10
2016,08,20,05,09,15.10
2016,08,20,05,10,15.10
2016,08,20,05,11,15.00
2016,08,20,05,12,15.00
2016,08,20,05,13,15.00
2016,08,20,05,14,15.00
2016,08,20,05,15,15.00
2016,08,20,05,16,15.00
2016,08,20,05,17,15.00
2016,08,20,05,18,15.00
2016,08,20,05,19,15.00
2016,08,20,05,20,15.00
2016,08,20,05,21,15.00
2016,08,20,05,22,15.00
2016,08,20,05,23,15.00
2016,08,20,05,24,15.00
2016,08,20,05,25,15.10
2016,08,20,05,26,15.10
2016,08,20,05,27,15.10
2016,08,20,05,28,15.00
2016,08,20,05,29,15.00
2016,08,20,05,30,15.00
2016,08,20,05,31,15.00
2016,08,20,05,32,15.00
2016,08,20,05,33,15.00
2016,08,20,05,34,15.00
2016,08,20,05,35,15.00
2016,08,20,05,36,15.00
2016,08,20,05,37,15.00
2016,08,20,05,38,14.90
2016,08,20,05,39,14.90
2016,08,20,05,40,14.90
2016,08,20,05,41,14.90
2016,08,20,05,42,14.90
2016,08,20,05,43,14.90
2016,08,20,05,44,14.90
2016,08,20,05,45,14.90
2016,08,20,05,46,15.00
2016,08,20,05,47,15.00
2016,08,20,05,48,15.00
2016,08,20,05,49,15.00
2016,08,20,05,50,15.00
2016,08,20,05,51,15.00
2016,08,20,05,52,15.00
2016,08,20,05,53,15.10
2016,08,20,05,54,15.10
2016,08,20,05,55,15.20
2016,08,20,05,56,15.20
2016,08,20,05,57,15.20
2016,08,20,05,58,15.30
2016,08,20,05,59,15.30
2016,08,20,06,00,15.40
2016,08,20,06,01,15.40
2016,08,20,06,02,15.50
2016,08,20,06,03,15.50
2016,08,20,06,04,15.50
2016,08,20,06,05,15.60
2016,08,20,06,06,15.60
2016,08,20,06,07,15.60
2016,08,20,06,08,15.60
2016,08,20,06,09,15.60
2016,08,20,06,10,15.60
2016,08,20,06,11,15.60
2016,08,20,06,12,15.60
2016,08,20,06,13,15.50
2016,08,20,06,14,15.50
2016,08,20,06,15,15.50
2016,08,20,06,16,15.40
2016,08,20,06,17,15.40
2016,08,20,06,18,15.40
2016,08,20,06,19,15.40
2016,08,20,06,20,15.30
2016,08,20,06,21,15.30
2016,08,20,06,22,15.30
2016,08,20,06,23,15.30
2016,08,20,06,24,15.20
2016,08,20,06,25,15.20
2016,08,20,06,26,15.20
2016,08,20,06,27,15.10
2016,08,20,06,28,15.00
2016,08,20,06,29,15.00
2016,08,20,06,30,15.00
2016,08,20,06,31,15.00
2016,08,20,06,32,15.00
2016,08,20,06,33,15.00
2016,08,20,06,34,15.00
2016,08,20,06,35,15.00
2016,08,20,06,36,15.00
2016,08,20,06,37,15.00
2016,08,20,06,38,14.90
2016,08,20,06,39,14.90
2016,08,20,06,40,14.90
2016,08,20,06,41,14.90
2016,08,20,06,42,14.90
2016,08,20,06,43,15.00
2016,08,20,06,44,15.00
2016,08,20,06,45,15.00
2016,08,20,06,46,15.00
2016,08,20,06,47,15.00
2016,08,20,06,48,15.00
2016,08,20,06,49,15.00
2016,08,20,06,50,15.00
2016,08,20,06,51,15.00
2016,08,20,06,52,15.00
2016,08,20,06,53,15.00
2016,08,20,06,54,15.00
2016,08,20,06,55,15.00
2016,08,20,06,56,15.00
2016,08,20,06,57,15.00
2016,08,20,06,58,15.10
2016,08,20,06,59,15.30
2016,08,20,07,00,15.50
2016,08,20,07,01,15.60
2016,08,20,07,02,15.80
2016,08,20,07,03,16.00
2016,08,20,07,04,16.20
2016,08,20,07,05,16.40
2016,08,20,07,06,16.70
2016,08,20,07,07,17.10
2016,08,20,07,08,17.50
2016,08,20,07,09,17.80
2016,08,20,07,10,18.10
2016,08,20,07,11,18.30
2016,08,20,07,12,18.40
2016,08,20,07,13,18.40
2016,08,20,07,14,18.50
2016,08,20,07,15,18.50
2016,08,20,07,16,18.50
2016,08,20,07,17,18.50
2016,08,20,07,18,18.40
2016,08,20,07,19,18.40
2016,08,20,07,20,18.40
2016,08,20,07,21,18.40
2016,08,20,07,22,18.40
2016,08,20,07,23,18.50
2016,08,20,07,24,18.70
2016,08,20,07,25,18.80
2016,08,20,07,26,18.90
2016,08,20,07,27,19.10
2016,08,20,07,28,19.20
2016,08,20,07,29,19.40
2016,08,20,07,30,19.60
2016,08,20,07,31,19.80
2016,08,20,07,32,19.90
2016,08,20,07,33,20.00
2016,08,20,07,34,20.10
2016,08,20,07,35,20.20
2016,08,20,07,36,20.20
2016,08,20,07,37,20.20
2016,08,20,07,38,20.20
2016,08,20,07,39,20.20
2016,08,20,07,40,20.20
2016,08,20,07,41,20.20
2016,08,20,07,42,20.30
2016,08,20,07,43,20.30
2016,08,20,07,44,20.40
2016,08,20,07,45,20.50
2016,08,20,07,46,20.60
2016,08,20,07,47,20.60
2016,08,20,07,48,20.70
2016,08,20,07,49,20.80
2016,08,20,07,50,20.80
2016,08,20,07,51,20.90
2016,08,20,07,52,20.90
2016,08,20,07,53,20.90
2016,08,20,07,54,21.00
2016,08,20,07,55,21.10
2016,08,20,07,56,21.10
2016,08,20,07,57,21.10
2016,08,20,07,58,21.20
2016,08,20,07,59,21.20
2016,08,20,08,00,21.30
2016,08,20,08,01,21.30
2016,08,20,08,02,21.30
2016,08,20,08,03,21.40
2016,08,20,08,04,21.40
2016,08,20,08,05,21.50
2016,08,20,08,06,21.50
2016,08,20,08,07,21.60
2016,08,20,08,08,21.60
2016,08,20,08,09,21.70
2016,08,20,08,10,21.70
2016,08,20,08,11,21.80
2016,08,20,08,12,21.80
2016,08,20,08,13,21.80
2016,08,20,08,14,21.90
2016,08,20,08,15,21.90
2016,08,20,08,16,21.90
2016,08,20,08,17,22.00
2016,08,20,08,18,22.10
2016,08,20,08,19,22.10
2016,08,20,08,20,22.10
2016,08,20,08,21,22.20
2016,08,20,08,22,22.20
2016,08,20,08,23,22.20
2016,08,20,08,24,22.30
2016,08,20,08,25,22.30
2016,08,20,08,26,22.40
2016,08,20,08,27,22.40
2016,08,20,08,28,22.40
2016,08,20,08,29,22.40
2016,08,20,08,30,22.50
2016,08,20,08,31,22.50
2016,08,20,08,32,22.60
2016,08,20,08,33,22.60
2016,08,20,08,34,22.60
2016,08,20,08,35,22.70
2016,08,20,08,36,22.70
2016,08,20,08,37,22.80
2016,08,20,08,38,22.80
2016,08,20,08,39,22.90
2016,08,20,08,40,22.90
2016,08,20,08,41,23.00
2016,08,20,08,42,23.00
2016,08,20,08,43,23.10
2016,08,20,08,44,23.20
2016,08,20,08,45,23.20
2016,08,20,08,46,23.20
2016,08,20,08,47,23.20
2016,08,20,08,48,23.20
2016,08,20,08,49,23.20
2016,08,20,08,50,23.20
2016,08,20,08,51,23.20
2016,08,20,08,52,23.20
2016,08,20,08,53,23.20
2016,08,20,08,54,23.20
2016,08,20,08,55,23.20
2016,08,20,08,56,23.30
2016,08,20,08,57,23.30
2016,08,20,08,58,23.30
2016,08,20,08,59,23.30
2016,08,20,09,00,23.40
2016,08,20,09,01,23.40
2016,08,20,09,02,23.50
2016,08,20,09,03,23.50
2016,08,20,09,04,23.60
2016,08,20,09,05,23.60
2016,08,20,09,06,23.70
2016,08,20,09,07,23.80
2016,08,20,09,08,23.80
2016,08,20,09,09,23.90
2016,08,20,09,10,23.90
2016,08,20,09,11,23.90
2016,08,20,09,12,23.90
2016,08,20,09,13,24.00
2016,08,20,09,14,24.00
2016,08,20,09,15,24.10
2016,08,20,09,16,24.10
2016,08,20,09,17,24.10
2016,08,20,09,18,24.10
2016,08,20,09,19,24.10
2016,08,20,09,20,24.10
2016,08,20,09,21,24.10
2016,08,20,09,22,24.10
2016,08,20,09,23,24.10
2016,08,20,09,24,24.10
2016,08,20,09,25,24.10
2016,08,20,09,26,24.10
2016,08,20,09,27,24.20
2016,08,20,09,28,24.20
2016,08,20,09,29,24.30
2016,08,20,09,30,24.30
2016,08,20,09,31,24.40
2016,08,20,09,32,24.40
2016,08,20,09,33,24.40
2016,08,20,09,34,24.40
2016,08,20,09,35,24.40
2016,08,20,09,36,24.40
2016,08,20,09,37,24.40
2016,08,20,09,38,24.40
2016,08,20,09,39,24.40
2016,08,20,09,40,24.40
2016,08,20,09,41,24.40
2016,08,20,09,42,24.40
2016,08,20,09,43,24.40
2016,08,20,09,44,24.50
2016,08,20,09,45,24.50
2016,08,20,09,46,24.60
2016,08,20,09,47,24.60
2016,08,20,09,48,24.60
2016,08,20,09,49,24.70
2016,08,20,09,50,24.70
2016,08,20,09,51,24.70
2016,08,20,09,52,24.70
2016,08,20,09,53,24.70
2016,08,20,09,54,24.70
2016,08,20,09,55,24.70
2016,08,20,09,56,24.80
2016,08,20,09,57,24.80
2016,08,20,09,58,24.80
2016,08,20,09,59,24.80
2016,08,20,10,00,24.90
2016,08,20,10,01,24.90
2016,08,20,10,02,24.90
2016,08,20,10,03,25.00
2016,08,20,10,04,25.00
2016,08,20,10,05,25.10
2016,08,20,10,06,25.10
2016,08,20,10,07,25.10
2016,08,20,10,08,25.20
2016,08,20,10,09,25.20
2016,08,20,10,10,25.30
2016,08,20,10,11,25.30
2016,08,20,10,12,25.30
2016,08,20,10,13,25.40
2016,08,20,10,14,25.40
2016,08,20,10,15,25.40
2016,08,20,10,16,25.40
2016,08,20,10,17,25.40
2016,08,20,10,18,25.40
2016,08,20,10,19,25.40
2016,08,20,10,20,25.40
2016,08,20,10,21,25.40
2016,08,20,10,22,25.40
2016,08,20,10,23,25.40
2016,08,20,10,24,25.50
2016,08,20,10,25,25.50
2016,08,20,10,26,25.60
2016,08,20,10,27,25.70
2016,08,20,10,28,25.70
2016,08,20,10,29,25.70
2016,08,20,10,30,25.70
2016,08,20,10,31,25.70
2016,08,20,10,32,25.70
2016,08,20,10,33,25.70
2016,08,20,10,34,25.70
2016,08,20,10,35,25.80
2016,08,20,10,36,25.90
2016,08,20,10,37,26.00
2016,08,20,10,38,26.10
2016,08,20,10,39,26.20
2016,08,20,10,40,26.30
2016,08,20,10,41,26.40
2016,08,20,10,42,26.50
2016,08,20,10,43,26.60
2016,08,20,10,44,26.60
2016,08,20,10,45,26.70
2016,08,20,10,46,26.70
2016,08,20,10,47,26.80
2016,08,20,10,48,26.80
2016,08,20,10,49,26.80
2016,08,20,10,50,26.80
2016,08,20,10,51,26.90
2016,08,20,10,52,26.90
2016,08,20,10,53,26.90
2016,08,20,10,54,27.00
2016,08,20,10,55,26.90
2016,08,20,10,56,26.90
2016,08,20,10,57,27.00
2016,08,20,10,58,27.00
2016,08,20,10,59,26.90
2016,08,20,11,00,27.00
2016,08,20,11,01,27.10
2016,08,20,11,02,27.20
2016,08,20,11,03,27.30
2016,08,20,11,04,27.30
2016,08,20,11,05,27.30
2016,08,20,11,06,27.20
2016,08,20,11,07,27.20
2016,08,20,11,08,27.10
2016,08,20,11,09,27.10
2016,08,20,11,10,27.10
2016,08,20,11,11,27.20
2016,08,20,11,12,27.20
2016,08,20,11,13,27.20
2016,08,20,11,14,27.20
2016,08,20,11,15,27.20
2016,08,20,11,16,27.20
2016,08,20,11,17,27.30
2016,08,20,11,18,27.40
2016,08,20,11,19,27.60
2016,08,20,11,20,27.70
2016,08,20,11,21,27.80
2016,08,20,11,22,27.80
2016,08,20,11,23,27.90
2016,08,20,11,24,27.90
2016,08,20,11,25,27.90
2016,08,20,11,26,27.90
2016,08,20,11,27,27.90
2016,08,20,11,28,27.90
2016,08,20,11,29,27.90
2016,08,20,11,30,27.80
2016,08,20,11,31,27.80
2016,08,20,11,32,27.80
2016,08,20,11,33,27.70
2016,08,20,11,34,27.50
2016,08,20,11,35,27.40
2016,08,20,11,36,27.30
2016,08,20,11,37,27.20
2016,08,20,11,38,27.20
2016,08,20,11,39,27.10
2016,08,20,11,40,27.20
2016,08,20,11,41,27.20
2016,08,20,11,42,27.20
2016,08,20,11,43,27.30
2016,08,20,11,44,27.20
2016,08,20,11,45,27.20
2016,08,20,11,46,27.30
2016,08,20,11,47,27.30
2016,08,20,11,48,27.20
2016,08,20,11,49,27.10
2016,08,20,11,50,27.00
2016,08,20,11,51,26.90
2016,08,20,11,52,26.90
2016,08,20,11,53,26.80
2016,08,20,11,54,26.80
2016,08,20,11,55,26.90
2016,08,20,11,56,26.90
2016,08,20,11,57,27.00
2016,08,20,11,58,27.10
2016,08,20,11,59,27.20
2016,08,20,12,00,27.30
2016,08,20,12,01,27.30
2016,08,20,12,02,27.30
2016,08,20,12,03,27.30
2016,08,20,12,04,27.30
2016,08,20,12,05,27.40
2016,08,20,12,06,27.50
2016,08,20,12,07,27.50
2016,08,20,12,08,27.60
2016,08,20,12,09,27.60
2016,08,20,12,10,27.60
2016,08,20,12,11,27.60
2016,08,20,12,12,27.60
2016,08,20,12,13,27.60
2016,08,20,12,14,27.50
2016,08,20,12,15,27.40
2016,08,20,12,16,27.30
2016,08,20,12,17,27.40
2016,08,20,12,18,27.40
2016,08,20,12,19,27.50
2016,08,20,12,20,27.60
2016,08,20,12,21,27.60
2016,08,20,12,22,27.60
2016,08,20,12,23,27.50
2016,08,20,12,24,27.40
2016,08,20,12,25,27.10
2016,08,20,12,26,26.90
2016,08,20,12,27,26.70
2016,08,20,12,28,26.40
2016,08,20,12,29,26.30
2016,08,20,12,30,26.20
2016,08,20,12,31,26.10
2016,08,20,12,32,26.10
2016,08,20,12,33,26.20
2016,08,20,12,34,26.20
2016,08,20,12,35,26.00
2016,08,20,12,36,25.80
2016,08,20,12,37,25.80
2016,08,20,12,38,25.90
2016,08,20,12,39,26.00
2016,08,20,12,40,26.10
2016,08,20,12,41,26.20
2016,08,20,12,42,26.20
2016,08,20,12,43,26.20
2016,08,20,12,44,26.30
2016,08,20,12,45,26.30
2016,08,20,12,46,26.30
2016,08,20,12,47,26.40
2016,08,20,12,48,26.40
2016,08,20,12,49,26.30
2016,08,20,12,50,26.20
2016,08,20,12,51,26.20
2016,08,20,12,52,26.30
2016,08,20,12,53,26.30
2016,08,20,12,54,26.40
2016,08,20,12,55,26.60
2016,08,20,12,56,26.70
2016,08,20,12,57,26.80
2016,08,20,12,58,26.70
2016,08,20,12,59,26.50
2016,08,20,13,00,26.30
2016,08,20,13,01,26.20
2016,08,20,13,02,26.20
2016,08,20,13,03,26.20
2016,08,20,13,04,26.30
2016,08,20,13,05,26.20
2016,08,20,13,06,26.10
2016,08,20,13,07,26.00
2016,08,20,13,08,25.90
2016,08,20,13,09,25.80
2016,08,20,13,10,25.70
2016,08,20,13,11,25.60
2016,08,20,13,12,25.70
2016,08,20,13,13,25.70
2016,08,20,13,14,25.70
2016,08,20,13,15,25.80
2016,08,20,13,16,25.80
2016,08,20,13,17,25.90
2016,08,20,13,18,25.90
2016,08,20,13,19,26.00
2016,08,20,13,20,26.20
2016,08,20,13,21,26.30
2016,08,20,13,22,26.40
2016,08,20,13,23,26.60
2016,08,20,13,24,26.70
2016,08,20,13,25,26.90
2016,08,20,13,26,27.00
2016,08,20,13,27,27.10
2016,08,20,13,28,27.10
2016,08,20,13,29,27.10
2016,08,20,13,30,27.20
2016,08,20,13,31,27.30
2016,08,20,13,32,27.40
2016,08,20,13,33,27.40
2016,08,20,13,34,27.30
2016,08,20,13,35,27.20
2016,08,20,13,36,27.20
2016,08,20,13,37,27.20
2016,08,20,13,38,27.10
2016,08,20,13,39,26.80
2016,08,20,13,40,26.70
2016,08,20,13,41,26.70
2016,08,20,13,42,26.70
2016,08,20,13,43,26.80
2016,08,20,13,44,26.90
2016,08,20,13,45,27.10
2016,08,20,13,46,27.20
2016,08,20,13,47,27.30
2016,08,20,13,48,27.40
2016,08,20,13,49,27.60
2016,08,20,13,50,27.70
2016,08,20,13,51,27.70
2016,08,20,13,52,27.80
2016,08,20,13,53,28.00
2016,08,20,13,54,28.00
2016,08,20,13,55,28.00
2016,08,20,13,56,28.00
2016,08,20,13,57,28.00
2016,08,20,13,58,28.00
2016,08,20,13,59,27.90
2016,08,20,14,00,28.00
2016,08,20,14,01,27.90
2016,08,20,14,02,27.80
2016,08,20,14,03,27.60
2016,08,20,14,04,27.40
2016,08,20,14,05,27.20
2016,08,20,14,06,27.00
2016,08,20,14,07,26.90
2016,08,20,14,08,26.90
2016,08,20,14,09,26.90
2016,08,20,14,10,26.90
2016,08,20,14,11,26.80
2016,08,20,14,12,26.80
2016,08,20,14,13,26.70
2016,08,20,14,14,26.60
2016,08,20,14,15,26.60
2016,08,20,14,16,26.60
2016,08,20,14,17,26.60
2016,08,20,14,18,26.70
2016,08,20,14,19,26.70
2016,08,20,14,20,26.70
2016,08,20,14,21,26.80
2016,08,20,14,22,26.90
2016,08,20,14,23,27.00
2016,08,20,14,24,27.10
2016,08,20,14,25,27.10
2016,08,20,14,26,27.20
2016,08,20,14,27,27.20
2016,08,20,14,28,27.20
2016,08,20,14,29,27.10
2016,08,20,14,30,27.10
2016,08,20,14,31,27.10
2016,08,20,14,32,27.10
2016,08,20,14,33,27.10
2016,08,20,14,34,27.10
2016,08,20,14,35,27.10
2016,08,20,14,36,27.10
2016,08,20,14,37,27.10
2016,08,20,14,38,27.20
2016,08,20,14,39,27.30
2016,08,20,14,40,27.30
2016,08,20,14,41,27.40
2016,08,20,14,42,27.50
2016,08,20,14,43,27.60
2016,08,20,14,44,27.70
2016,08,20,14,45,27.80
2016,08,20,14,46,27.90
2016,08,20,14,47,27.90
2016,08,20,14,48,27.90
2016,08,20,14,49,28.00
2016,08,20,14,50,28.10
2016,08,20,14,51,28.10
2016,08,20,14,52,28.20
2016,08,20,14,53,28.10
2016,08,20,14,54,28.10
2016,08,20,14,55,28.10
2016,08,20,14,56,28.10
2016,08,20,14,57,28.10
2016,08,20,14,58,28.20
2016,08,20,14,59,28.30
2016,08,20,15,00,28.30
2016,08,20,15,01,28.40
2016,08,20,15,02,28.50
2016,08,20,15,03,28.60
2016,08,20,15,04,28.70
2016,08,20,15,05,28.90
2016,08,20,15,06,29.00
2016,08,20,15,07,29.10
2016,08,20,15,08,29.30
2016,08,20,15,09,29.20
2016,08,20,15,10,29.20
2016,08,20,15,11,29.10
2016,08,20,15,12,29.00
2016,08,20,15,13,29.00
2016,08,20,15,14,28.90
2016,08,20,15,15,28.90
2016,08,20,15,16,28.90
2016,08,20,15,17,28.90
2016,08,20,15,18,28.90
2016,08,20,15,19,28.90
2016,08,20,15,20,28.80
2016,08,20,15,21,28.80
2016,08,20,15,22,28.80
2016,08,20,15,23,28.80
2016,08,20,15,24,28.80
2016,08,20,15,25,28.90
2016,08,20,15,26,29.10
2016,08,20,15,27,29.20
2016,08,20,15,28,29.20
2016,08,20,15,29,29.20
2016,08,20,15,30,29.20
2016,08,20,15,31,29.00
2016,08,20,15,32,28.80
2016,08,20,15,33,28.70
2016,08,20,15,34,28.70
2016,08,20,15,35,28.70
2016,08,20,15,36,28.70
2016,08,20,15,37,28.80
2016,08,20,15,38,28.80
2016,08,20,15,39,28.80
2016,08,20,15,40,29.00
2016,08,20,15,41,29.20
2016,08,20,15,42,29.30
2016,08,20,15,43,29.30
2016,08,20,15,44,29.30
2016,08,20,15,45,29.30
2016,08,20,15,46,29.40
2016,08,20,15,47,29.60
2016,08,20,15,48,29.70
2016,08,20,15,49,29.90
2016,08,20,15,50,30.00
2016,08,20,15,51,30.00
2016,08,20,15,52,29.90
2016,08,20,15,53,29.80
2016,08,20,15,54,29.80
2016,08,20,15,55,29.80
2016,08,20,15,56,29.80
2016,08,20,15,57,29.70
2016,08,20,15,58,29.50
2016,08,20,15,59,29.10
2016,08,20,16,00,28.80
2016,08,20,16,01,28.60
2016,08,20,16,02,28.40
2016,08,20,16,03,28.40
2016,08,20,16,04,28.40
2016,08,20,16,05,28.50
2016,08,20,16,06,28.60
2016,08,20,16,07,28.70
2016,08,20,16,08,28.80
2016,08,20,16,09,28.80
2016,08,20,16,10,28.90
2016,08,20,16,11,28.80
2016,08,20,16,12,28.90
2016,08,20,16,13,28.90
2016,08,20,16,14,29.00
2016,08,20,16,15,29.10
2016,08,20,16,16,29.30
2016,08,20,16,17,29.40
2016,08,20,16,18,29.50
2016,08,20,16,19,29.50
2016,08,20,16,20,29.60
2016,08,20,16,21,29.70
2016,08,20,16,22,29.80
2016,08,20,16,23,29.80
2016,08,20,16,24,29.80
2016,08,20,16,25,29.70
2016,08,20,16,26,29.70
2016,08,20,16,27,29.60
2016,08,20,16,28,29.50
2016,08,20,16,29,29.40
2016,08,20,16,30,29.50
2016,08,20,16,31,29.60
2016,08,20,16,32,29.70
2016,08,20,16,33,29.80
2016,08,20,16,34,29.90
2016,08,20,16,35,30.00
2016,08,20,16,36,30.00
2016,08,20,16,37,30.10
2016,08,20,16,38,30.10
2016,08,20,16,39,30.20
2016,08,20,16,40,30.30
2016,08,20,16,41,30.30
2016,08,20,16,42,30.30
2016,08,20,16,43,30.30
2016,08,20,16,44,30.20
2016,08,20,16,45,30.20
2016,08,20,16,46,30.30
2016,08,20,16,47,30.30
2016,08,20,16,48,30.40
2016,08,20,16,49,30.30
2016,08,20,16,50,30.20
2016,08,20,16,51,30.20
2016,08,20,16,52,30.20
2016,08,20,16,53,30.10
2016,08,20,16,54,30.10
2016,08,20,16,55,30.10
2016,08,20,16,56,30.10
2016,08,20,16,57,30.10
2016,08,20,16,58,30.10
2016,08,20,16,59,30.00
2016,08,20,17,00,30.00
2016,08,20,17,01,29.90
2016,08,20,17,02,29.90
2016,08,20,17,03,29.90
2016,08,20,17,04,29.80
2016,08,20,17,05,29.70
2016,08,20,17,06,29.70
2016,08,20,17,07,29.70
2016,08,20,17,08,29.60
2016,08,20,17,09,29.60
2016,08,20,17,10,29.50
2016,08,20,17,11,29.40
2016,08,20,17,12,29.30
2016,08,20,17,13,29.20
2016,08,20,17,14,29.10
2016,08,20,17,15,29.00
2016,08,20,17,16,28.90
2016,08,20,17,17,28.80
2016,08,20,17,18,28.80
2016,08,20,17,19,28.70